map of MLE home
Great Circle Mapper logo
MLE - Airport
Location
City:  Malé, Hulhulé Island, Maldives
Name:Malé International Airport
ICAO / IATA:VRMM / MLE

Details
Type:Airport (Aerodrome, Airfield)
Use:Public/Civil, International (customs port of entry)
Latitude:4°11'30"N (4.191667)
Longitude:73°31'45"E (73.529167)
Elevation:6 ft (2 m)
Variation:3.2°W (WMM2010 magnetic declination)
Runways:1
Longest:10499 × 148 ft (3200 × 45 m), paved

Time
Time Zone:UTC+5
Local Time:

Weather
METAR:VRMM 262200Z 14005KT 8000 -RA FEW017TCU OVC100 26/25 Q1007 TEMPO 4000 TSRA
TAF:VRMM 261100Z 2612/2718 03005KT 9999 FEW018
TEMPO 2612/2618 5000 -SHRA SCT016 FEW017CB SCT120

Related Locations
Nearby:
Farthest:SEII: 11355 mi / 18274 km
Puerto Villamil [General Villamil], Isabela Island, Galápagos Islands, EC

Find:

   beyond  
but within

Other Information
Maps:
NOTAMs:
Links:
Sources:

  
flag of Maldives   

Airport Diagram

Airport diagram for MLE

Airport diagram PDF

Sectional Chart

Flight Planning
at skyvector.com

Satellite Image

Google Maps Satellite View

 

Copyright © 2004-2014 Karl L. Swartz. All rights reserved.
The Great Circle Mapper name and logo are trademarks of the Great Circle Mapper.
All other trademarks mentioned herein belong to their respective owners.
Please see credits for attibutions and further copyright information.

  Follow gcmap on Facebook Follow gcmap on Twitter

hCard Microformat

Geo Microformat